Laredo, TX

1:18 PM CDT on June 25, 2017 (GMT -0500)
Laredo International

Weather History for KLRD - January, 2013

Change the Weather History Date:

Wednesday, January 23, 2013

  Actual Average Record
Temperature  
Mean Temperature 68 °F 57 °F  
Max Temperature 80 °F 68 °F 94 °F (1943)
Min Temperature 56 °F 47 °F 16 °F (1930)
Degree Days  
Heating Degree Days 0 9  
Month to date heating degree days 213 223  
Since 1 July heating degree days 415 613  
Cooling Degree Days 3 1  
Month to date cooling degree days 10 23  
Year to date cooling degree days 10 23  
Growing Degree Days 17 (Base 50)    
Moisture  
Dew Point 57 °F    
Average Humidity 68    
Maximum Humidity 90    
Minimum Humidity 48    
Precipitation  
Precipitation 0.00 in 0.03 in 1.47 in (1958)
Month to date precipitation 0.44 0.67  
Year to date precipitation 0.44 0.67  
Sea Level Pressure  
Sea Level Pressure 30.26 in    
Wind  
Wind Speed 8 mph (SSE)    
Max Wind Speed 16 mph    
Max Gust Speed 20 mph    
Visibility 10 miles    
Events      
T = Trace of Precipitation, MM = Missing Value Source: NWS Daily Summary

Daily Weather History Graph

Daily Weather History Graph

Search for Another Location

Airport or City:

Trip Planner

Search our weather history database for the weather conditions in past years. The results will help you decide how hot, cold, wet, or windy it might be!

Date:

Astronomy

Jan. 23, 2013 Rise Set
Actual Time 7:27 AM CST 6:12 PM CST
Civil Twilight 7:03 AM CST 6:36 PM CST
Nautical Twilight 6:34 AM CST 7:05 PM CST
Astronomical Twilight 6:06 AM CST 7:33 PM CST
Moon 3:27 PM CST (1/23) 4:36 AM CST (1/23)
Length of Visible Light 11h 33m
Length of Day
10h 44m
Waxing Gibbous, 89% of the Moon is Illuminated
Jan 23
Waxing Gibbous
Jan 26
Full
Feb 3
Last Quarter
Feb 10
New
Feb 17
First Quarter

Hourly Weather History & Observations

Time (CST) Temp. Dew Point Humidity Pressure Visibility Wind Dir Wind Speed Gust Speed Precip Events Conditions
12:56 AM 61.9 °F 50.9 °F 67% 30.25 in 10.0 mi SE 6.9 mph - N/A   Clear
1:56 AM 61.9 °F 52.9 °F 72% 30.25 in 10.0 mi SSE 8.1 mph - N/A   Clear
2:56 AM 61.0 °F 52.9 °F 75% 30.23 in 10.0 mi SSE 4.6 mph - N/A   Scattered Clouds
3:56 AM 57.9 °F 52.9 °F 83% 30.23 in 10.0 mi ESE 5.8 mph - N/A   Clear
4:56 AM 56.8 °F 52.9 °F 87% 30.24 in 10.0 mi ESE 4.6 mph - N/A   Clear
5:56 AM 56.8 °F 52.9 °F 87% 30.25 in 10.0 mi ESE 5.8 mph - N/A   Clear
6:56 AM 55.9 °F 52.9 °F 89% 30.26 in 10.0 mi SE 6.9 mph - N/A   Clear
7:56 AM 57.9 °F 54.9 °F 90% 30.27 in 9.0 mi SE 5.8 mph - N/A   Clear
8:56 AM 62.6 °F 57.2 °F 82% 30.30 in 10.0 mi SE 6.9 mph - N/A   Clear
9:56 AM 70.9 °F 61.0 °F 71% 30.30 in 10.0 mi South 11.5 mph - N/A   Clear
10:33 AM 71.6 °F 60.8 °F 69% 30.35 in 10.0 mi SSE 11.5 mph - N/A   Mostly Cloudy
10:56 AM 72.9 °F 59.9 °F 64% 30.32 in 10.0 mi South 15.0 mph - N/A   Mostly Cloudy
11:19 AM 73.4 °F 60.8 °F 65% 30.34 in 10.0 mi SW 10.4 mph - N/A   Mostly Cloudy
11:42 AM 73.4 °F 60.8 °F 65% 30.33 in 10.0 mi SSW 11.5 mph - N/A   Mostly Cloudy
11:56 AM 73.9 °F 61.0 °F 64% 30.30 in 10.0 mi SSW 9.2 mph - N/A   Overcast
12:06 PM 73.4 °F 60.8 °F 65% 30.33 in 10.0 mi SW 8.1 mph - N/A   Mostly Cloudy
12:39 PM 73.4 °F 60.8 °F 65% 30.31 in 10.0 mi SSW 6.9 mph - N/A   Overcast
12:49 PM 75.2 °F 59.0 °F 57% 30.30 in 10.0 mi SSE 9.2 mph - N/A   Overcast
12:56 PM 73.9 °F 59.0 °F 59% 30.27 in 10.0 mi SSE 6.9 mph - N/A   Overcast
1:56 PM 77.9 °F 59.0 °F 52% 30.23 in 10.0 mi South 8.1 mph 16.1 mph N/A   Partly Cloudy
2:56 PM 78.8 °F 57.2 °F 47% 30.23 in 10.0 mi ESE 5.8 mph - N/A   Unknown
3:56 PM 79.0 °F 57.9 °F 48% 30.19 in 10.0 mi SE 13.8 mph - N/A   Mostly Cloudy
4:56 PM 77.9 °F 57.9 °F 50% 30.19 in 10.0 mi SE 9.2 mph - N/A   Partly Cloudy
5:56 PM 75.9 °F 57.9 °F 54% 30.20 in 10.0 mi SSE 10.4 mph - N/A   Partly Cloudy
6:56 PM 72.9 °F 56.8 °F 57% 30.22 in 10.0 mi SSE 6.9 mph - N/A   Clear
7:56 PM 68.9 °F 55.9 °F 63% 30.22 in 10.0 mi SE 4.6 mph - N/A   Clear
8:56 PM 66.9 °F 55.9 °F 68% 30.22 in 10.0 mi SSE 4.6 mph - N/A   Clear
9:56 PM 65.8 °F 55.9 °F 70% 30.22 in 10.0 mi SE 5.8 mph - N/A   Clear
10:56 PM 66.9 °F 57.9 °F 73% 30.22 in 10.0 mi SSE 9.2 mph - N/A   Clear
11:56 PM 65.8 °F 59.0 °F 79% 30.22 in 10.0 mi South 10.4 mph - N/A   Clear